Flight Information

DEPARTURE
REDDING, CA
Elevation:
504
Runways:
16/34 - 7003x150 - ASPH-G
12/30 - 5067x150 - ASPH-G
ATIS:
124.1
Ground:
121.7
Tower:
REDDING TOWER 119.8
DESTINATION
,
Elevation:
TPA:
1000 (est.)


6837.7 NM68° True-17° Var51° HDG

Flight Plan:
(click to file on line)

1. Type
2. Aircraft Identification
3. Aircraft Type / Special Equipment
4. True Airspeed
kts
5. Departure Airport
(ICAO code)
6. Arriving Airport
(ICAO code)
7. Cruising Altitude
ft
8. Alternate Airport
(ICAO code)
9. Route of Flight
10. Remarks


00:00:00 Departure ATIS: Destination ATIS:

Clearance Limit:
Route:
Altitude: Expect in minutes
Frequency:
Transponder: (7500 Hijack / 7600 Lost Comms / 7700 Emergency)


KRDD 101553Z 36008KT 10SM CLR 29/11 A2998 RMK AO2 SLP144 T02890111
Time: 2020-07-10T15:53:00Z
1594399918
Winds: 360 @ 8 kts
Visibility: 10.0 sm
Clouds (AGL): CLR
Temperature: 28.9 C
Dew Point: 11.1 C
Pressure: 29.97933 in Hgbr


Notes:

Data extracted from FAA Digital Chart Supplement. Effective: 0901Z Thursday, May 21, 2020 to 0901Z Thursday, Jul 16, 2020
Current ATIS data is provided courtisy of PilotEdge.